TimeMDT,TemperatureF,Dew PointF,Humidity,Sea Level PressureIn,VisibilityMPH,Wind Direction,Wind SpeedMPH,Gust SpeedMPH,PrecipitationIn,Events,Conditions,WindDirDegrees,DateUTC
1:41 AM,73.4,68.0,83,29.89,10.0,Calm,Calm,-,N/A,,Clear,0,2012-10-09 07:41:00
2:50 AM,74,68,77,29.93,6,West,2.2,,,,,260,2012-10-09 08:50:00
5:50 AM,66,62,84,29.87,10,NNW,2.2,,,,,340,2012-10-09 11:50:00
5:53 AM,71.6,66.2,83,29.88,10.0,Calm,Calm,-,N/A,,Clear,0,2012-10-09 11:53:00
6:41 AM,71.6,64.4,78,29.91,10.0,Calm,Calm,-,N/A,,Clear,0,2012-10-09 12:41:00
7:40 AM,71.6,64.4,78,29.93,10.0,Calm,Calm,-,N/A,,Clear,0,2012-10-09 13:40:00
8:35 AM,70,66,84,29.91,10,WSW,2.2,,,,Haze,240,2012-10-09 14:35:00
8:43 AM,75.2,62.6,65,29.94,20.0,NNE,4.6,-,N/A,,Clear,20,2012-10-09 14:43:00
9:41 AM,78.8,62.6,57,29.96,20.0,NNE,4.6,-,N/A,,Clear,20,2012-10-09 15:41:00
10:42 AM,84.2,62.6,48,29.95,20.0,NNE,5.8,-,N/A,,Clear,20,2012-10-09 16:42:00
11:35 AM,92,58,23,29.99,10,NW,2.2,,,,Haze,320,2012-10-09 17:35:00
11:43 AM,87.8,60.8,40,29.94,20.0,NE,5.8,-,N/A,,Clear,40,2012-10-09 17:43:00
12:40 PM,93.2,60.8,34,29.93,10.0,Calm,Calm,-,N/A,,Clear,0,2012-10-09 18:40:00
1:43 PM,98.6,66.2,35,29.89,10.0,Calm,Calm,-,N/A,,Clear,0,2012-10-09 19:43:00
2:40 PM,98,47,10,29.93,10,West,2.2,,,,Haze,280,2012-10-09 20:40:00
2:50 PM,100.4,64.4,31,29.91,10.0,WSW,4.6,-,N/A,,Clear,240,2012-10-09 20:50:00
3:45 PM,102.2,64.4,29,29.86,10.0,Calm,Calm,-,N/A,,Clear,0,2012-10-09 21:45:00
4:40 PM,98.6,66.2,35,29.85,10.0,West,5.8,-,N/A,,Clear,270,2012-10-09 22:40:00
5:40 PM,95,64,26,29.90,10,West,2.2,,,,Haze,260,2012-10-09 23:40:00
5:40 PM,95.0,68.0,41,29.81,10.0,WNW,11.5,-,N/A,,Clear,300,2012-10-09 23:40:00
6:41 PM,87.8,68.0,52,29.86,10.0,West,5.8,-,N/A,,Clear,280,2012-10-10 00:41:00
7:43 PM,86.0,68.0,55,29.87,10.0,NW,11.5,-,N/A,,Clear,310,2012-10-10 01:43:00
8:35 PM,82,69,58,29.95,6,Calm,Calm,,,,,,2012-10-10 02:35:00
8:41 PM,84.2,69.8,62,29.86,10.0,Calm,Calm,-,N/A,,Clear,0,2012-10-10 02:41:00
9:40 PM,82.4,69.8,66,29.90,10.0,Calm,Calm,-,N/A,,Clear,0,2012-10-10 03:40:00
10:41 PM,80.6,69.8,70,29.91,10.0,Calm,Calm,-,N/A,,Clear,0,2012-10-10 04:41:00
11:35 PM,73,67,76,29.98,6,Calm,Calm,,,,,,2012-10-10 05:35:00
11:41 PM,80.6,69.8,70,29.88,10.0,Calm,Calm,-,N/A,,Clear,0,2012-10-10 05:41:00